www.pogodaiklimat.ru

Погода и климат >> Архив погоды >> Австралия >> Южная Австралия >> Мумба


ПОГОДА в Мумбе

  • Прогноз погоды в Мумбе
  • Монитор погоды в Мумбе

АРХИВ ПОГОДЫ в Мумбе

Время (UTC), дата Ветер
(напр.,м/с)
 
Видим.   Явления Облачность Т
(С)
Тd
(С)
f
(%)
Тe
(С)
Тes
(С)
Комфортность P
(гПа)
Po
(гПа)
Тmin
(С)
Tmax
(С)
R
(мм)
R24
(мм)
S
(см)
11 15.01 СВ 4 н/о н/о +38.3 +2.7 11 +35 +35 очень
жарко
1007.2 1002.9
10 15.01 СВ 4 н/о н/о +40.7 +3.1 10 +37 +37 очень
жарко
1006.7 1002.4
12 15.01 СВ 2 н/о н/о +36.3 +2.4 12 +33 +33 жарко 1007.8 1003.5
13 15.01 СВ 4 н/о н/о +36.0 +4.3 14 +33 +33 жарко 1008.0 1003.7
14 15.01 СВ 5 н/о н/о +35.6 +5.0 15 +33 +33 жарко 1007.6 1003.3
15 15.01 СВ 4 н/о н/о +33.3 +5.0 17 +31 +31 жарко 1007.1 1002.8
17 15.01 С 4 н/о н/о +31.7 +4.5 18 +29 +29 жарко 1006.3 1002.0
16 15.01 С 4 н/о н/о +32.4 +4.2 17 +30 +30 жарко 1006.7 1002.4
18 15.01 С 4 н/о н/о +31.7 +5.3 19 +30 +30 жарко 1006.3 1002.0
19 15.01 С 4 н/о н/о +30.2 +4.8 20 +28 +28 жарко 1006.8 1002.5
20 15.01 С 5 н/о н/о +30.2 +4.8 20 +28 +28 жарко 1007.2 1002.9
21 15.01 С 5 н/о н/о +31.7 +5.3 19 +30 +30 жарко 1008.2 1003.9
23 15.01 СЗ 7 н/о н/о +39.1 +6.7 14 +37 +37 очень
жарко
1009.2 1004.9
22 15.01 С 6 н/о н/о +36.4 +5.6 15 +34 +34 очень
жарко
1008.9 1004.6
00 16.01 С 7 н/о н/о +41.5 +6.4 12 +39 +39 очень
жарко
1008.8 1004.5
01 16.01 С 6 н/о н/о +42.5 +5.9 11 +40 +40 очень
жарко
1008.4 1004.1
02 16.01 СЗ 6 н/о н/о +43.1 +6.3 11 +40 +40 очень
жарко
1008.0 1003.7
03 16.01 С 6 н/о н/о +43.9 +5.5 10 +41 +41 опасность
перегрева
1007.3 1003.0
05 16.01 СВ 4 н/о н/о +45.0 +4.8 9 +42 +42 опасность
перегрева
1005.6 1001.3
04 16.01 С 5 н/о н/о +44.4 +5.9 10 +42 +42 опасность
перегрева
1006.5 1002.2
06 16.01 С 4 н/о н/о +44.8 +6.2 10 +42 +42 опасность
перегрева
1005.0 1000.7
07 16.01 С 7 н/о н/о +44.5 +6.0 10 +42 +42 опасность
перегрева
1004.5 1000.2
08 16.01 С 4 н/о н/о +44.4 +5.9 10 +42 +42 опасность
перегрева
1004.3 1000.0
09 16.01 СВ 6 н/о н/о +43.4 +5.2 10 +41 +41 опасность
перегрева
1004.6 1000.3
11 16.01 С 4 н/о н/о +38.4 +5.1 13 +36 +36 очень
жарко
1005.7 1001.4
10 16.01 С 4 н/о н/о +41.0 +4.7 11 +38 +38 очень
жарко
1005.2 1000.9
12 16.01 С 4 н/о н/о +37.1 +5.2 14 +34 +34 очень
жарко
1006.0 1001.7
13 16.01 С 4 н/о н/о +36.1 +5.4 15 +33 +33 жарко 1006.3 1002.0
14 16.01 СЗ 4 н/о н/о +35.0 +6.3 17 +33 +33 жарко 1006.1 1001.8
15 16.01 СЗ 3 н/о н/о +34.4 +5.8 17 +32 +32 жарко 1005.7 1001.4
17 16.01 СЗ 2 н/о н/о +32.6 +6.0 19 +31 +31 жарко 1005.0 1000.7
16 16.01 СЗ 4 н/о н/о +33.1 +6.4 19 +31 +31 жарко 1005.3 1001.0
18 16.01 штиль 0 н/о н/о +30.8 +6.0 21 +29 +29 жарко 1004.9 1000.6
19 16.01 штиль 0 н/о н/о +29.0 +3.8 20 +27 +27 жарко 1005.2 1000.9
20 16.01 штиль 0 н/о н/о +29.2 +5.3 22 +28 +28 жарко 1005.7 1001.4
21 16.01 С 2 н/о н/о +31.5 +6.5 21 +30 +30 жарко 1006.4 1002.1
23 16.01 З 4 н/о н/о +39.7 +5.0 12 +37 +37 очень
жарко
1007.1 1002.8
22 16.01 З 1 н/о н/о +37.0 +5.1 14 +34 +34 очень
жарко
1006.7 1002.4
00 17.01 З 4 н/о н/о +41.6 +5.2 11 +39 +39 очень
жарко
1006.8 1002.5
01 17.01 З 3 н/о н/о +43.0 +4.9 10 +40 +40 очень
жарко
1006.4 1002.1
02 17.01 С 3 н/о н/о +44.6 +4.5 9 +42 +42 опасность
перегрева
1006.0 1001.7
03 17.01 Ю 2 н/о н/о +44.8 +4.7 9 +42 +42 опасность
перегрева
1005.0 1000.7
05 17.01 ЮВ 6 н/о н/о +45.7 +5.4 9 +43 +43 опасность
перегрева
1003.1 998.8
04 17.01 Ю 3 н/о н/о +44.9 +4.8 9 +42 +42 опасность
перегрева
1004.1 999.8
06 17.01 В 4 н/о н/о +45.7 +5.4 9 +43 +43 опасность
перегрева
1002.6 998.3
07 17.01 С 3 н/о н/о +46.1 +5.6 9 +43 +43 опасность
перегрева
1002.0 997.7
08 17.01 В 3 н/о н/о +44.6 +4.5 9 +42 +42 опасность
перегрева
1001.9 997.6
09 17.01 СВ 2 н/о н/о +44.1 +4.2 9 +41 +41 опасность
перегрева
1002.3 998.0
11 17.01 СЗ 5 н/о н/о +40.6 +5.7 12 +38 +38 очень
жарко
1003.0 998.7
10 17.01 С 4 н/о н/о +41.8 +5.3 11 +39 +39 очень
жарко
1002.7 998.4
12 17.01 СЗ 4 н/о н/о +39.3 +4.7 12 +36 +36 очень
жарко
1003.4 999.1
13 17.01 СВ 5 н/о н/о +40.3 +6.6 13 +38 +38 очень
жарко
1003.9 999.6
14 17.01 ЮЗ 1 н/о н/о +39.0 +6.7 14 +36 +36 очень
жарко
1003.7 999.4
15 17.01 З 3 н/о н/о +39.2 +5.7 13 +36 +36 очень
жарко
1002.9 998.6
17 17.01 СВ 3 н/о н/о +35.2 +6.5 17 +33 +33 жарко 1002.4 998.1
16 17.01 СВ 2 н/о н/о +36.4 +5.6 15 +34 +34 очень
жарко
1002.5 998.2
18 17.01 СВ 6 н/о н/о +36.7 +7.7 17 +35 +35 очень
жарко
1003.2 998.9
19 17.01 СВ 6 н/о н/о +35.4 +8.3 19 +34 +34 очень
жарко
1003.6 999.3
20 17.01 С 4 н/о н/о +33.5 +8.2 21 +32 +32 жарко 1004.2 999.9
21 17.01 С 5 н/о н/о +35.0 +11.4 24 +35 +35 очень
жарко
1004.9 1000.6
23 17.01 С 8 н/о н/о +38.8 +11.0 19 +38 +38 очень
жарко
1005.9 1001.6
22 17.01 С 7 н/о н/о +36.3 +12.5 24 +36 +36 очень
жарко
1005.5 1001.2
00 18.01 СЗ 10 н/о н/о +41.2 +10.4 16 +40 +40 очень
жарко
1005.5 1001.2
01 18.01 СЗ 8 н/о н/о +43.8 +9.3 13 +42 +42 опасность
перегрева
1005.2 1000.9
02 18.01 С 5 н/о н/о +44.3 +7.2 11 +42 +42 опасность
перегрева
1004.9 1000.6
03 18.01 СЗ 4 н/о н/о +44.9 +6.3 10 +42 +42 опасность
перегрева
1004.3 1000.0
05 18.01 ЮЗ 3 н/о н/о +44.8 +6.2 10 +42 +42 опасность
перегрева
1003.4 999.1
04 18.01 С 2 н/о н/о +45.4 +5.1 9 +43 +43 опасность
перегрева
1003.8 999.5
06 18.01 СЗ 7 н/о н/о +44.1 +5.7 10 +41 +41 опасность
перегрева
1003.0 998.7
07 18.01 З 6 н/о н/о +44.1 +5.7 10 +41 +41 опасность
перегрева
1003.0 998.7
08 18.01 ЮЗ 8 н/о н/о +42.6 +8.4 13 +41 +41 опасность
перегрева
1003.4 999.1
09 18.01 З 7 н/о н/о +42.3 +8.1 13 +40 +40 очень
жарко
1004.2 999.9
11 18.01 Ю 6 н/о н/о +39.5 +10.8 18 +38 +38 очень
жарко
1007.0 1002.7
10 18.01 ЮЗ 9 н/о н/о +40.6 +8.9 15 +39 +39 очень
жарко
1005.5 1001.2
12 18.01 Ю 4 н/о н/о +39.1 +11.3 19 +38 +38 очень
жарко
1007.9 1003.6
13 18.01 Ю 5 н/о н/о +38.6 +11.6 20 +38 +38 очень
жарко
1008.1 1003.8
14 18.01 Ю 6 н/о н/о +37.9 +11.1 20 +37 +37 очень
жарко
1007.9 1003.6
15 18.01 Ю 8 н/о н/о +36.9 +12.4 23 +37 +37 очень
жарко
1007.8 1003.5
17 18.01 ЮВ 7 н/о н/о +35.0 +13.8 28 +36 +36 очень
жарко
1008.3 1004.0
16 18.01 ЮВ 7 н/о н/о +36.0 +13.5 26 +36 +36 очень
жарко
1008.2 1003.9
18 18.01 ЮВ 5 н/о н/о +33.9 +14.4 31 +35 +35 очень
жарко
1008.7 1004.4
19 18.01 ЮВ 6 н/о н/о +33.2 +14.8 33 +35 +35 душно 1008.9 1004.6
20 18.01 Ю 6 н/о н/о +33.2 +13.8 31 +34 +34 очень
жарко
1010.1 1005.8
21 18.01 Ю 7 н/о н/о +33.3 +13.4 30 +34 +34 очень
жарко
1010.8 1006.5
23 18.01 Ю 9 н/о н/о +33.6 +13.1 29 +34 +34 очень
жарко
1012.1 1007.8
22 18.01 Ю 9 н/о н/о +33.5 +12.5 28 +34 +34 очень
жарко
1011.8 1007.5
00 19.01 Ю 10 н/о н/о +33.8 +12.2 27 +34 +34 очень
жарко
1012.0 1007.7
01 19.01 ЮВ 10 н/о н/о +36.3 +12.5 24 +36 +36 очень
жарко
1012.1 1007.8
02 19.01 ЮВ 6 н/о н/о +40.2 +12.1 19 +40 +40 очень
жарко
1011.4 1007.1
03 19.01 ЮВ 4 н/о н/о +40.7 +11.7 18 +40 +40 очень
жарко
1011.0 1006.7
05 19.01 Ю 6 н/о н/о +42.5 +11.4 16 +42 +42 опасность
перегрева
1009.8 1005.5
04 19.01 Ю 6 н/о н/о +41.1 +12.1 18 +40 +40 очень
жарко
1010.4 1006.1
06 19.01 ЮВ 7 н/о н/о +41.7 +10.8 16 +40 +40 очень
жарко
1009.0 1004.7
07 19.01 Ю 8 н/о н/о +41.3 +10.4 16 +40 +40 очень
жарко
1008.5 1004.2
08 19.01 Ю 9 н/о н/о +41.4 +10.5 16 +40 +40 очень
жарко
1008.2 1003.9
09 19.01 Ю 8 н/о н/о +40.5 +10.7 17 +39 +39 очень
жарко
1008.6 1004.3
11 19.01 Ю 8 н/о н/о +38.9 +10.3 18 +38 +38 очень
жарко
1009.8 1005.5
10 19.01 Ю 7 н/о н/о +39.4 +9.8 17 +38 +38 очень
жарко
1009.4 1005.1
12 19.01 Ю 5 н/о н/о +38.0 +10.4 19 +37 +37 очень
жарко
1010.4 1006.1
13 19.01 Ю 8 н/о н/о +37.6 +10.8 20 +37 +37 очень
жарко
1010.7 1006.4
14 19.01 Ю 6 н/о н/о +36.4 +11.3 22 +36 +36 очень
жарко
1010.7 1006.4
15 19.01 Ю 8 н/о н/о +35.8 +10.8 22 +35 +35 очень
жарко
1010.3 1006.0
17 19.01 ЮВ 7 н/о н/о +34.8 +10.6 23 +34 +34 очень
жарко
1010.3 1006.0
16 19.01 Ю 9 н/о н/о +35.1 +10.9 23 +34 +34 очень
жарко
1010.3 1006.0
18 19.01 ЮВ 8 н/о н/о +34.3 +10.2 23 +33 +33 жарко 1010.3 1006.0
19 19.01 Ю 8 н/о н/о +33.3 +9.4 23 +32 +32 жарко 1010.7 1006.4
20 19.01 Ю 8 н/о н/о +32.3 +9.2 24 +31 +31 жарко 1011.3 1007.0
21 19.01 ЮВ 8 н/о н/о +32.4 +7.3 21 +31 +31 жарко 1011.9 1007.6
23 19.01 ЮВ 10 н/о н/о +35.6 +5.0 15 +33 +33 жарко 1012.5 1008.2
22 19.01 ЮВ 8 н/о н/о +33.8 +5.4 17 +31 +31 жарко 1012.2 1007.9
00 20.01 ЮВ 9 н/о н/о +37.3 +4.3 13 +34 +34 очень
жарко
1012.1 1007.8
01 20.01 В 8 н/о н/о +39.0 +4.4 12 +36 +36 очень
жарко
1012.0 1007.7
02 20.01 ЮВ 7 н/о н/о +40.8 +4.6 11 +38 +38 очень
жарко
1011.3 1007.0
03 20.01 В 5 н/о н/о +42.1 +4.2 10 +39 +39 очень
жарко
1010.7 1006.4
05 20.01 В 6 н/о н/о +43.7 +5.4 10 +41 +41 опасность
перегрева
1008.8 1004.5
04 20.01 ЮВ 6 н/о н/о +42.1 +4.2 10 +39 +39 очень
жарко
1009.8 1005.5
06 20.01 Ю 4 н/о н/о +43.8 +5.5 10 +41 +41 опасность
перегрева
1008.0 1003.7
07 20.01 Ю 6 н/о н/о +42.9 +4.8 10 +40 +40 очень
жарко
1007.4 1003.1
08 20.01 Ю 6 н/о н/о +43.0 +4.9 10 +40 +40 очень
жарко
1007.3 1003.0
09 20.01 Ю 7 н/о н/о +42.3 +4.3 10 +39 +39 очень
жарко
1007.7 1003.4
11 20.01 Ю 7 н/о н/о +39.3 +4.7 12 +36 +36 очень
жарко
1009.3 1005.0
10 20.01 Ю 8 н/о н/о +40.5 +4.3 11 +37 +37 очень
жарко
1008.5 1004.2
12 20.01 Ю 7 н/о н/о +38.3 +5.0 13 +35 +35 очень
жарко
1009.7 1005.4
13 20.01 Ю 7 н/о н/о +37.7 +5.6 14 +35 +35 очень
жарко
1009.9 1005.6
14 20.01 Ю 9 н/о н/о +37.2 +5.3 14 +34 +34 очень
жарко
1009.9 1005.6
15 20.01 ЮВ 8 н/о н/о +35.8 +4.2 14 +33 +33 жарко 1009.6 1005.3
17 20.01 ЮВ 6 н/о н/о +33.8 +4.5 16 +31 +31 жарко 1009.1 1004.8
16 20.01 ЮВ 6 н/о н/о +35.0 +3.5 14 +32 +32 жарко 1009.3 1005.0
18 20.01 ЮВ 7 н/о н/о +33.2 +4.9 17 +31 +31 жарко 1009.0 1004.7
19 20.01 ЮВ 6 н/о н/о +32.6 +4.4 17 +30 +30 жарко 1009.2 1004.9
20 20.01 Ю 7 н/о н/о +31.5 +2.7 16 +29 +29 жарко 1009.8 1005.5
21 20.01 ЮВ 5 н/о н/о +31.3 +2.5 16 +29 +29 жарко 1011.0 1006.7
23 20.01 ЮВ 6 н/о н/о +34.7 +4.3 15 +32 +32 жарко 1010.9 1006.6
22 20.01 ЮВ 7 н/о н/о +32.9 +2.9 15 +30 +30 жарко 1011.2 1006.9
00 21.01 В 6 н/о н/о +37.0 +4.0 13 +34 +34 очень
жарко
1010.7 1006.4
01 21.01 В 5 н/о н/о +38.9 +3.1 11 +36 +36 очень
жарко
1010.5 1006.2
02 21.01 ЮВ 3 н/о н/о +41.1 +3.4 10 +38 +38 очень
жарко
1009.7 1005.4
03 21.01 Ю 2 н/о н/о +41.3 +3.6 10 +38 +38 очень
жарко
1008.7 1004.4
05 21.01 В 2 н/о н/о +42.8 +3.2 9 +40 +40 очень
жарко
1007.2 1002.9
04 21.01 С 2 н/о н/о +42.5 +3.0 9 +39 +39 очень
жарко
1008.0 1003.7
06 21.01 С 3 н/о н/о +43.3 +3.6 9 +40 +40 очень
жарко
1006.7 1002.4
07 21.01 З 2 н/о н/о +43.7 +3.9 9 +41 +41 опасность
перегрева
1006.2 1001.9
08 21.01 ЮВ 3 н/о н/о +43.6 +3.8 9 +40 +40 очень
жарко
1006.1 1001.8
09 21.01 З 2 н/о н/о +43.4 +5.2 10 +41 +41 опасность
перегрева
1006.4 1002.1
11 21.01 Ю 6 н/о н/о +40.0 +6.4 13 +37 +37 очень
жарко
1007.9 1003.6
10 21.01 штиль 0 н/о н/о +41.4 +3.7 10 +38 +38 очень
жарко
1007.0 1002.7
12 21.01 Ю 5 н/о н/о +38.9 +6.6 14 +36 +36 очень
жарко
1008.5 1004.2
13 21.01 Ю 6 н/о н/о +38.4 +6.2 14 +36 +36 очень
жарко
1008.6 1004.3
14 21.01 Ю 5 н/о н/о +37.6 +4.5 13 +35 +35 очень
жарко
1008.4 1004.1
15 21.01 ЮВ 5 н/о н/о +36.8 +2.8 12 +34 +34 очень
жарко
1008.1 1003.8
17 21.01 ЮВ 3 н/о н/о +35.3 +2.7 13 +32 +32 жарко 1007.3 1003.0
16 21.01 Ю 6 н/о н/о +36.3 +2.4 12 +33 +33 жарко 1007.6 1003.3
18 21.01 ЮВ 4 н/о н/о +33.9 +2.7 14 +31 +31 жарко 1007.3 1003.0
19 21.01 ЮВ 4 н/о н/о +32.6 +2.6 15 +30 +30 жарко 1007.6 1003.3
20 21.01 В 3 н/о н/о +30.7 +2.9 17 +28 +28 жарко 1008.2 1003.9
21 21.01 В 3 н/о н/о +33.3 +4.1 16 +31 +31 жарко 1008.8 1004.5
23 21.01 В 4 н/о н/о +38.9 +3.1 11 +36 +36 очень
жарко
1009.7 1005.4
22 21.01 В 4 н/о н/о +35.3 +3.8 14 +32 +32 жарко 1009.6 1005.3
00 22.01 С 5 н/о н/о +40.4 +5.5 12 +38 +38 очень
жарко
1009.7 1005.4
01 22.01 С 8 н/о н/о +42.6 +8.4 13 +41 +41 опасность
перегрева
1009.3 1005.0
02 22.01 СЗ 7 н/о н/о +42.8 +7.3 12 +40 +40 очень
жарко
1008.6 1004.3
03 22.01 С 7 н/о н/о +43.7 +6.8 11 +41 +41 опасность
перегрева
1007.8 1003.5
05 22.01 С 3 н/о н/о +44.5 +6.0 10 +42 +42 опасность
перегрева
1006.4 1002.1
04 22.01 СЗ 5 н/о н/о +43.8 +6.8 11 +41 +41 опасность
перегрева
1007.0 1002.7
06 22.01 ЮВ 2 н/о н/о +44.9 +6.3 10 +42 +42 опасность
перегрева
1005.8 1001.5
07 22.01 ЮЗ 4 н/о н/о +45.1 +6.4 10 +43 +43 опасность
перегрева
1005.3 1001.0
08 22.01 З 3 н/о н/о +44.4 +5.9 10 +42 +42 опасность
перегрева
1005.0 1000.7
09 22.01 ЮВ 4 н/о н/о +43.8 +5.5 10 +41 +41 опасность
перегрева
1005.1 1000.8
10 22.01 СВ 3 н/о н/о +41.6 +5.2 11 +39 +39 очень
жарко
1005.6 1001.3

 

Местоположение метеостанции Мумба (Южная Австралия, Австралия): широта -28.10 долгота 140.20 высота над уровнем моря 38 м.

В архиве по умолчанию представлена погода в Мумбе за последнюю неделю. Архивные данные за месяц целиком и за предыдущие месяцы, начиная с января 2011 года, Вы можете получить, выбрав интересующий диапазон дат из раскрывающегося списка и нажав кнопку "Ввод!".


*Определитесь, кто Вы:
робот инопланетянин человек

Внимание! Время в таблицах - всемирное. Для получения местного времени необходимо прибавить поправку, которая равна 9.5 ч.

Смотрите также архив погоды в соседних городах и на ближайших метеорологических станциях:

Погода в Месторождении Ballera (Квинсленд, Австралия) (176 км)
Погода в Тибообере (Новый Южный Уэльс, Австралия) (235 км)
Погода в Бердсвилле (Квинсленд, Австралия) (259 км)
Погода в Марри (Южная Австралия, Австралия) (271 км)
Погода в Ли-Крике (Южная Австралия, Австралия) (327 км)
Погода в Таргоминде (Квинсленд, Австралия) (355 км)
Погода в Фоулерс Гэп (Новый Южный Уэльс, Австралия) (362 км)
Погода в Уафт Клифс (Новый Южный Уэльс, Австралия) (413 км)
Погода в Олимпик Дэм (Южная Австралия, Австралия) (417 км)
Погода в Брокен-Хилле (Новый Южный Уэльс, Австралия) (450 км)

Пояснения к столбцам:

Ветер - указаны скорость ветра в м/с - средняя за 10 мин, порывы в срок и между сроками (в фигурных скобках) и направление, откуда дует ветер: С - северный, СВ - северо-восточный, В - восточный, ЮВ - юго-восточный, Ю - южный, ЮЗ - юго-западный, З - западный, СЗ - северо-западный.
Видимость - горизонтальная дальность видимости в метрах или километрах. При видимости от 1 до 10 км при отсутствии осадков обычно наблюдается дымка, при ухудшении видимости до 1 км и менее - туман. В сухую погоду видимость может ухудшаться дымом, пылью или мглою.
Явления - указаны атмосферные явления, наблюдавшиеся в срок или в последний час перед сроком; фигурными скобками обозначены явления, наблюдавшиеся между сроками (за 1-3 часа до срока); квадратными скобками обозначены град или гололедные отложения с указанием их диаметра в мм.
Облачность - указаны через наклонную черту общая и нижняя облачность в баллах и высота нижней границы облаков в метрах; квадратными скобками обозначены формы облаков: Ci - перистые, Cs - перисто-слоистые, Cc - перисто-кучевые, Ac - высококучевые, As - высокослоистые, Sc - слоисто-кучевые, Ns - слоисто-дождевые, Cu - кучевые, Cb - кучево-дождевые. Подробнее классификацию облаков см. в Атласе облаков (PDF).
T - Температура воздуха - температура, измеренная на высоте 2 м над землей.
Td - Температура точки росы - температура, при понижении до которой содержащийся в воздухе водяной пар достигнет насыщения.
f - Относительная влажность воздуха - влажноcть воздуха, измеренная на высоте 2 м над землей.
Te - Эффективная температура - температура, которую ощущает одетый по сезону человек в тени. Характеристика душности погоды. При расчете учитывается влияние влажности воздуха и скорости ветра на теплоощущения человека.
Tes - Эффективная температура на солнце - температура, которую ощущает человек, с поправкой на солнечный нагрев. Характеристика знойности погоды. Зависит от высоты солнца над горизонтом, облачности и скорости ветра. Ночью, в пасмурную погоду, а также при ветре 12 м/с и более поправка равна нулю.
P - Атмосферное давление - приведенное к уровню моря атмосферное давление.
Po - Атмосферное давление - измеренное на уровне метеостанции атмосферное давление.
Tmin - Минимальная температура - минимум температуры воздуха на высоте 2 м над землей.
Tmax - Максимальная температура - максимум температуры воздуха на высоте 2 м над землей.
R - Количество осадков - Количество выпавших осадков за период времени, мм. При наведении курсора мыши на число - период времени, за который выпало указанное количество осадков.
R24 - Количество осадков - Количество выпавших осадков за 24 часа, мм.
S - Снежный покров - Высота снежного покрова, см. При наведении курсора мыши на число - состояние снежного покрова и степень покрытия местности в баллах.